Back to catalog

STARLINK-31491

AliveCommunicationsVLEO
NORAD 59011·PAYLOAD·🇺🇸 United States

Launched Feb 23, 2024 from Vandenberg Space Force Base

Loading…

Next Passes (next 24 hours)

TLE

FreshSource: CelesTrak SupGP

Epoch: Sep 15, 2026, 03:05 UTC

1 59011C 24036P   26258.12895833 -.00006493  00000+0 -19181-3 0  2587
2 59011  53.1571 277.0744 0001193  84.9783 257.2095 15.34396509    10

Track STARLINK-31491 in real time with AllMySat

Download on the App Store